Tracking 28052 objects as of 25-Sep-2023
HD Live streaming from Space Station
objects crossing your sky now

COSMOS 1818 COOLANT

Track COSMOS 1818 COOLANT now!
10-day predictions


NORAD ID: 50791
Int'l Code: 1987-011BG
Perigee: 771.0 km
Apogee: 794.5 km
Inclination: 65.0 °
Period: 100.4 minutes
Semi major axis: 7153 km
RCS: Unknown
Launch date: February 1, 1987
Source: Commonwealth of Independent States (former USSR) (CIS)
Launch site: TYURATAM MISSILE AND SPACE COMPLEX (TTMTR)

Note: This is SATELLITE DEBRIS
Your satellite tracking list
Your tracking list is empty




NASA's NSSDC Master Catalog

Two Line Element Set (TLE):
1 50791U 87011BG  23264.02788226  .00000985  00000-0  38110-3 0  9999
2 50791  65.0088 135.8759 0016415 285.2829  74.6442 14.34835730514737
Source of the keplerian elements: AFSPC